Sturgeon Bay, WI

10:25 PM CDT on May 03, 2015 (GMT -0500)
Leif Everson Observatory | | Change Station
CLOSE
Current Station
Personal Weather Station
Location: Sturgeon Bay, WI
Elevation: 636 ft
Nearby Weather Stations

Elev 636 ft 44.83 °N, 87.34 °W | Updated 3 minutes ago

Clear
Clear
65.2 °F
Feels Like 65.2 °F
N
6.0
Wind Variable Wind from NNW
Gusts 7.0 mph

Today
High -- | Low -- °F
--% Chance of Precip.
Yesterday
High -- | Low -- °F
Precip. -- in
5:36 AM 7:56 PM
Full, 100% visible
Pressure 29.88 in
Visibility 10.0 miles
Clouds Mostly Cloudy 8000 ft
Overcast 9000 ft
Dew Point 54 °F
Humidity 68%
Rainfall 0.00 in
Snow Depth Not available.
UV 0.0 out of 12
Pollen 11.30 out of 12
Air Quality Not available.
Flu Activity Local Activity
METAR KSUE 040315Z AUTO 22012G16KT 10SM BKN080 OVC090 20/11 A2988 RMK AO1

More Conditions Fewer Conditions

Pressure 29.88 in
Visibility 10.0 miles
Clouds Mostly Cloudy 8000 ft
Overcast 9000 ft
Dew Point 54 °F
Humidity 68%
Rainfall 0.00 in
Snow Depth Not available.
UV 0.0 out of 12
Pollen 11.30 out of 12
Air Quality Not available.
Flu Activity Local Activity
METAR KSUE 040315Z AUTO 22012G16KT 10SM BKN080 OVC090 20/11 A2988 RMK AO1

More Conditions Fewer Conditions

Nepal has a long way to go to dig out and rebuild from a devastating earthquake. We have teamed up with several charities and organizations to make contributing to the relief effort as easy as possible.
How you can help: Portlight Strategies | Red Cross

10-Day Weather Forecast

Almanac

Astronomy

May. 03, 2015 Rise Set
Actual Time
Civil Twilight
Nautical Twilight
Astronomical Twilight
Moon
Length of Visible Light
Length of Day
Tomorrow will be .
, % of the Moon is Illuminated

Today's Extremes

State Highs State Lows

Community

WunderPhotos

Upload Photos

1,818,493 photos uploaded!

WunderBlogs® & News

Nearby

Air Quality

  Air Quality AQ Index Pollutant
Not available.

Snow Depth

Station Depth Elevation

Earthquake Activity

City Distance Mag. Time & Date
Minimum magnitude displayed is 2.5.

Coastal Water Temperatures

Place Temperature

Stations

Nearby Weather Stations

Station Location Temp. Windchill Dew Point Humidity Wind Precip. Elev Updated Type